Showing default

KUIPER-00076, 64823

Orbit data source: Space-Track

KUIPER-00076, 64823 is a payload satellite owned by Kuiper Systems (US) in LEO that was launched on Wed, 16 Jul 2025 UTC via an FALCON 9 launch vehicle from the Air Force Eastern Test Range (AFETR). Payload-class satellites include a variety of spacecraft equipped with specific instruments for various scientific and technological missions. These include communications satellites like Starlink; space stations such as the ISS; scientific satellites like the Hubble; Earth observation satellites from companies like Planet Labs, Umbra, and HawkEye 360; GPS; miniature CubeSats for education and research; and military/defense satellites.

Loading next visibility...
Identifier
64823, 2025-151H
Orbit
LEO
Country
Flag of USUS
Related business
Manufacturer
Kuiper Systems
Mission
Operational Commercial Communications
Bus & Motor
KUIPER, Unknown motor
Mass
~490 kg wet, ~490 kg dry
Launch date (UTC)
2025-07-16 (11 months ago)
Launch vehicle
FALCON 9
Launch site
Air Force Eastern Test Range (AFETR)
Object type
Payload
Rocket body
Debris
Shape & HBR
Box + 2 Pan, 3.4 m
Radar Cross Section
2.326 m², Large (>1 m²)

Expand to show TLE details & history
Last TLE update: 22 hours ago

TLE from 22 hours ago
0 KUIPER-00076
1 64823U 25151H   26166.34874294 -.00001811  00000-0 -20862-3 0  9993
2 64823  51.8998 221.2476 0000479  91.0723 269.0294 14.79933570 49879
Epoch: 2026-06-15T08:22Z
TLE epoch observation values (Epoch: 2026-06-15T08:22:11.390Z)
Latitude
-0.00001°
Longitude
-167.93628°
Altitude
630.286 km
Speed
7.544 km/s
True Right ascension
14h 44m 59s
True Declination
0° 00' 00"
Sunlit
Object was in full shadow at epoch
Visualization orbit readout
Latitude
Unknown
Longitude
Unknown
Altitude
Unknown
Speed
Unknown
Apparent Right ascension
Unknown
Apparent Declination
Unknown
Sunlit
N/A
Visualization observer readout
Local Sidereal Time
17:09:09
Azimuth
Unknown
Elevation
Unknown
Doppler factor
Unknown
Orbital elements
Apogee altitude
630.321 km
Perigee altitude
629.649 km
Semi-major axis
7,008.122 km
Eccentricity
0.00005
Inclination
51.8998°
RAAN
221.2476°
Arg. of periapsis
91.0723°
True anomaly
269.02391°
Mean anomaly
269.0294°
Eccentric anomaly
269.02666°
Mean motion
3.69948 °/min
Orbital period
97.31 mins
BSTAR
-0.00020862
Loading maneuver chart data...
Computing Atmospheric mass density...
Loading historical data...
Loading historical data...
Loading historical data...
Loading historical data...
Loading historical data...
Loading historical data...
Loading historical data...

Documentation

Showing up to 5 results
|